Zurück zum Katalog

CZ-6A DEB

AktivPO
NORAD 60866·DEBRIS·🇨🇳 China

Gestartet Aug 6, 2024 von Taiyuan Satellite Launch Center

Loading…

Nächste Überflüge (nächste 24 Stunden)

TLE

AktuellSource: Space-Track

Epoche: Sep 14, 2026, 22:51 UTC

1 60866U 24140JV  26257.95213654  .00003145  00000-0  62969-3 0  9992
2 60866  88.9382 253.6207 0107633 323.4496  35.9402 14.57940015110621

Verfolge CZ-6A DEB in Echtzeit mit AllMySat

Download on the App Store